Вернуться в каталог

DELTA 1 DEB

АктивенPO
NORAD 21353·DEBRIS·🇺🇸 United States

Запущен Jun 12, 1975 с Vandenberg Space Force Base

Loading…

Ближайшие Пролёты (ближайшие 24 часа)

TLE

СвежийSource: Space-Track

Эпоха: Sep 14, 2026, 02:02 UTC

1 21353U 75052BX  26257.08485633  .00000003  00000-0  14618-3 0  9998
2 21353  99.5266 103.9778 0521749 138.2117  12.3571 12.40781523598654

Отслеживайте DELTA 1 DEB в реальном времени с AllMySat

Download on the App Store